SCP
0 0 0 0 0 0 0 0 0 0 0 0 0 0 0 0 0 1 2 3 3 2 0 2 1 2 1 1 0 0 0 0 0 0 0 1 2 2 2 1 2 1 0
0 0 0 0 0 0 0 0 0 0 0 0 0 0 0 0 0 0 0 2 3 3 3 3 3 2 2 1 1 1 1 0 0 0 1 3 3 2 2 2 1 0 0
0 0 0 0 0 0 0 0 0 0 0 0 0 0 0 0 0 0 0 2 2 2 5 5 3 2 1 1 2 1 0 0 0 0 1 2 2 2 2 1 1 0 0
0 0 0 0 0 0 0 0 0 0 0 0 0 0 0 0 0 0 0 0 3 0 1 2 2 0 0 0 0 1 1 0 0 0 0 1 1 1 1 0 0 0 0
0 0 0 0 0 0 0 0 0 0 0 0 0 0 0 0 0 0 0 0 1 -0 2 2 2 3 3 1 1 2 1 1 0 0 0 1 2 1 0 0 0 0 0
0 0 0 0 0 0 0 0 0 0 0 0 0 0 0 0 0 0 -0 0 0 1 2 2 2 2 2 1 1 0 1 1 2 1 0 1 1 2 1 0 0 0 0
0 0 0 0 0 0 0 0 0 0 0 0 0 0 0 0 0 0 -0 0 0 0 0 0 1 2 2 1 1 1 1 0 1 1 0 0 1 1 0 0 0 0 0
0 0 0 0 0 0 0 0 0 0 0 0 0 0 0 0 0 0 0 0 0 0 0 0 0 1 4 3 2 2 2 2 1 0 0 0 0 0 0 0 0 0 0
0 0 0 0 0 0 0 0 0 0 0 0 0 0 0 0 0 0 0 0 0 0 0 0 0 1 2 2 3 2 2 2 2 1 0 0 0 0 0 0 0 0 0
0 0 0 0 0 0 0 0 0 0 0 0 0 0 0 0 0 0 0 0 0 1 1 1 1 1 1 1 1 2 2 3 2 0 0 0 0 0 0 0 0 0 0
0 0 0 0 0 0 0 0 0 0 0 0 0 0 0 0 0 0 0 0 0 0 1 1 1 1 1 1 1 1 1 1 0 0 0 0 0 0 0 0 0 0 0
0 0 0 0 0 0 0 0 0 0 0 0 -0 0 0 0 0 0 0 0 0 0 1 1 1 1 1 1 1 1 0 0 0 0 0 0 0 0 0 0 0 0 0
0 0 0 0 0 0 0 0 0 0 0 0 0 0 0 0 0 0 0 0 0 0 0 1 1 1 1 0 0 0 0 0 0 0 0 0 0 0 0 0 0 0 0
0 -0 -0 0 0 0 0 0 0 0 0 0 0 0 0 0 0 0 0 0 0 0 1 1 0 0 0 0 0 0 0 0 0 0 0 0 0 0 0 0 0 0 0
-0 -0 0 0 0 0 0 0 0 0 0 0 0 0 0 0 0 0 0 0 0 0 0 0 0 0 0 0 0 0 0 0 0 0 0 0 0 0 0 0 0 0 0
0 0 0 0 0 0 0 0 0 0 0 0 0 0 0 0 0 0 0 0 -0 -0 0 0 0 0 0 0 0 0 0 0 0 0 0 -0 -0 0 0 0 0 0 0
0 0 0 0 0 0 0 0 0 0 0 0 0 0 0 0 0 0 0 -0 -0 -0 0 0 0 0 0 0 0 0 0 0 0 0 0 0 0 0 0 0 0 0 0
0 0 0 0 0 0 0 0 0 0 0 0 0 0 0 0 0 0 0 -0 -0 -0 0 0 0 0 0 0 0 0 0 0 0 0 0 0 0 0 0 0 -0 -0 0
0 0 0 0 0 0 0 0 0 0 0 -0 0 0 0 0 0 0 -0 -0 0 0 0 0 0 0 0 0 0 0 0 0 0 0 0 0 0 0 -0 -0 -0 0 0
0 0 0 0 0 0 0 0 0 0 0 0 0 0 0 0 0 0 -0 0 0 0 0 0 0 0 0 0 0 0 0 0 0 0 0 0 0 0 -0 0 0 0 0
0 0 0 0 0 0 0 -0 -0 0 0 0 0 0 0 0 0 0 0 0 0 0 0 0 0 0 0 0 -0 -0 0 0 0 0 0 0 -0 -0 -0 -0 0 0 0
0 0 0 0 0 0 0 -0 -0 0 0 0 0 0 0 -0 0 0 0 0 0 0 0 0 0 0 0 -0 -0 0 0 0 0 0 0 -0 0 -0 -0 0 0 -0 -0
0 0 0 0 0 0 0 0 0 0 0 0 -0 0 0 0 0 0 0 0 0 0 0 0 0 0 0 0 -0 -0 0 -0 0 0 0 0 0 0 -0 -0 -0 -0 -0
0 0 0 -0 -0 -0 -0 0 0 0 0 0 0 0 0 0 0 0 0 0 0 0 0 0 0 0 0 0 0 0 0 -0 -0 0 0 0 0 0 0 -0 -0 -0 0
0 0 -0 -0 -0 -0 0 0 0 0 0 0 0 0 0 0 0 0 0 0 0 0 0 0 0 0 0 0 0 0 0 0 -0 0 0 0 0 0 0 -0 -0 0 0
0 0 0 -0 -0 -0 0 0 0 0 0 0 0 0 0 0 0 0 0 -0 -0 -0 -0 -0 0 0 0 -0 0 0 0 -0 0 0 0 0 0 0 -0 0 0 0 0
Wind_Speed_500mb
20 17 17 15 33 31 29 25 21 23 30 40 46 57 66 67 67 68 72 72 69 92 92 72 75 74 73 74 76 70 73 68 63 51 50 43 50 47 48 47 37 48 39
20 15 19 20 20 12 8 3 4 11 18 26 36 44 51 69 77 72 69 81 79 77 84 82 78 74 79 75 81 72 76 78 72 64 55 41 37 47 46 45 38 40 39
18 13 18 18 8 8 10 12 16 15 9 16 26 36 47 55 63 71 81 68 87 89 86 82 74 77 85 65 77 76 81 82 74 70 47 34 30 47 41 40 39 42 41
46 43 39 28 17 12 18 26 29 33 36 29 30 29 39 53 62 63 69 65 83 77 69 53 73 70 70 90 84 87 78 84 81 69 78 45 30 31 25 39 44 43 42
30 30 27 27 25 18 15 9 10 14 22 31 35 37 40 47 60 68 64 67 70 53 57 71 61 77 77 79 83 82 89 84 82 74 81 83 38 41 37 36 50 47 36
27 24 18 14 20 15 15 17 22 21 21 27 39 45 41 46 51 59 72 67 56 56 63 57 65 73 89 88 77 85 72 93 81 74 76 77 77 53 48 40 49 48 42
40 33 31 30 29 24 22 21 31 34 37 44 45 47 58 56 57 56 61 65 60 55 67 60 57 61 72 88 82 65 64 74 80 78 66 57 71 82 72 54 52 54 42
35 34 35 37 38 36 35 38 39 42 44 37 39 42 50 57 62 59 57 55 54 56 54 52 51 49 68 76 76 80 70 78 85 75 94 81 65 83 86 74 68 47 43
33 25 28 31 41 48 52 54 51 47 40 39 43 51 53 58 63 63 54 51 50 44 48 46 46 57 71 71 74 76 75 70 77 62 68 68 70 65 67 62 59 57 46
22 25 35 41 46 54 51 53 56 55 49 42 34 37 49 57 60 56 60 51 47 48 49 51 58 57 56 57 66 62 64 66 75 68 76 70 63 63 70 59 52 55 40
21 32 43 49 55 59 57 59 60 59 61 59 54 45 44 46 54 51 61 60 45 43 51 48 45 55 51 47 51 56 60 56 63 71 75 70 68 73 74 61 54 45 39
30 28 37 47 45 48 48 58 68 74 70 68 74 66 58 44 50 63 57 63 58 43 41 51 48 44 44 46 43 47 46 49 55 59 68 74 77 79 66 55 43 39 38
40 54 63 53 48 45 47 53 63 77 74 61 61 65 67 50 43 49 55 63 61 46 40 39 43 41 43 42 37 39 39 50 45 50 37 57 65 66 62 52 49 43 34
61 67 56 53 56 52 53 53 76 68 61 59 56 58 59 53 43 48 47 61 55 46 35 33 37 47 41 36 37 32 29 24 21 14 25 32 30 61 49 49 49 44 41
66 56 60 59 51 59 70 78 90 79 61 55 53 54 55 52 39 38 42 52 54 44 33 39 35 33 33 32 17 14 5 22 15 16 18 17 33 24 46 45 42 37 48
59 51 53 64 66 68 71 84 74 66 56 56 55 49 51 47 37 32 45 56 56 46 41 33 31 32 26 20 17 18 25 10 17 29 25 36 36 42 31 36 30 24 28
51 62 63 65 68 79 81 73 65 60 54 53 56 50 47 43 40 33 44 50 52 43 34 33 31 26 19 27 33 32 25 19 17 18 20 40 35 38 50 49 36 28 23
73 86 70 69 83 76 68 70 62 60 63 56 56 64 48 42 44 30 34 45 43 41 40 36 31 22 24 34 46 28 27 26 26 23 35 34 39 48 48 45 46 42 38
85 66 82 78 82 76 73 68 59 67 72 62 60 56 36 35 41 24 32 30 41 41 43 37 28 31 37 38 30 27 37 42 43 43 40 53 51 48 45 47 47 46 45
62 75 82 88 76 65 67 76 66 55 61 60 55 41 37 30 37 23 27 37 40 42 41 35 32 32 32 27 26 29 49 55 54 55 58 47 45 42 33 37 42 47 46
80 84 76 68 76 71 65 59 56 56 55 55 41 30 24 21 28 24 37 34 37 39 42 43 44 41 37 39 35 43 56 63 64 68 50 40 38 46 46 42 42 45 41
83 74 74 68 61 56 51 52 50 49 41 32 34 18 22 21 24 35 34 38 43 46 51 58 56 47 43 36 37 51 58 67 79 69 50 38 42 48 47 44 42 39 35
81 70 68 67 58 48 40 40 36 26 26 29 19 25 24 22 28 35 45 55 52 54 65 65 66 61 52 50 51 71 83 71 72 66 57 52 46 45 42 36 33 32 36
68 67 62 63 65 52 32 23 23 22 24 17 23 30 37 44 48 49 53 57 62 69 75 72 69 69 70 78 85 88 77 70 71 66 57 49 50 49 44 41 37 34 33
62 57 60 56 51 31 22 17 26 33 24 58 57 57 55 59 60 60 62 66 66 66 72 72 71 86 96 90 86 84 82 76 66 58 49 47 45 43 40 36 33 34 34
51 53 44 42 55 49 47 43 38 54 72 70 63 62 64 61 62 65 66 60 65 69 75 80 90 102 101 93 90 88 78 66 57 53 51 49 48 47 43 37 35 37 36
Wind_Direction_500mb
285 74 44 295 242 233 237 243 242 232 240 249 257 256 265 276 270 266 272 274 257 246 235 228 230 224 220 218 222 224 228 225 228 226 220 233 236 229 228 232 238 235 238
35 16 36 84 97 96 95 80 275 286 301 295 290 288 282 278 276 266 265 267 269 256 243 238 229 231 222 226 223 226 227 230 227 220 217 214 205 210 220 235 234 225 226
52 53 73 73 86 72 22 355 339 329 320 293 295 293 292 288 282 265 262 272 262 262 256 252 242 235 221 227 227 224 228 227 224 219 210 207 215 215 222 224 219 219 225
78 71 62 58 55 43 2 340 323 308 297 294 291 298 294 290 280 282 270 274 280 260 257 253 255 257 249 241 229 227 229 231 228 219 213 217 216 191 190 211 215 216 226
60 51 38 43 58 36 12 9 322 295 289 295 302 297 298 299 287 277 275 276 287 283 258 266 261 258 252 232 226 226 223 230 233 232 221 222 215 210 204 196 198 211 218
49 47 9 342 353 9 344 327 320 307 290 289 290 296 297 301 305 281 274 272 286 266 262 266 264 257 258 256 249 237 236 226 232 234 233 232 228 218 215 210 203 205 204
22 21 11 6 14 6 356 340 334 329 324 307 298 294 296 295 293 294 289 284 284 278 270 268 262 261 257 260 256 251 254 241 226 222 224 233 240 234 228 211 198 193 194
3 351 348 341 339 329 323 314 311 314 311 315 302 293 292 296 299 300 298 291 278 279 276 273 267 268 265 260 259 250 250 248 249 245 235 219 229 238 230 223 217 190 183
333 341 332 339 336 327 316 311 308 306 308 317 302 296 291 289 294 295 305 297 281 271 269 268 259 260 266 266 263 252 251 247 249 249 243 220 233 241 240 226 226 216 190
308 316 318 317 310 306 311 307 297 297 296 293 298 292 295 283 283 287 291 292 290 276 257 254 256 259 263 267 267 261 259 255 245 240 242 242 228 241 246 229 215 203 222
313 309 307 302 301 297 303 295 291 295 296 294 288 280 276 282 276 277 278 282 287 282 262 256 258 257 260 271 277 272 265 262 259 245 247 240 230 223 219 208 208 205 211
332 331 323 316 302 311 298 292 292 295 298 299 289 282 274 283 277 273 276 275 274 275 278 257 255 265 266 262 269 271 272 265 262 254 240 237 227 208 215 205 203 195 195
336 327 321 311 308 303 294 300 304 301 300 301 301 291 272 272 276 275 270 278 276 270 270 270 250 254 257 260 266 269 263 254 238 222 204 204 204 204 203 198 191 179 174
330 322 312 313 312 287 286 290 313 310 303 302 300 296 283 265 274 276 264 266 270 268 281 271 250 242 251 258 263 271 276 272 224 273 229 224 207 186 165 174 170 161 160
317 311 309 308 296 302 301 295 308 309 305 301 298 292 299 261 271 264 269 261 266 265 293 271 253 245 247 253 262 260 257 168 210 214 124 22 239 170 158 147 127 138 134
311 311 310 310 306 297 295 297 300 299 298 294 295 294 298 268 257 254 257 261 266 268 304 271 250 242 249 219 198 193 168 196 172 166 170 185 194 169 153 111 125 141 142
306 310 308 305 295 299 299 298 296 294 296 289 292 287 291 270 249 243 261 262 266 273 280 255 248 243 219 194 175 174 170 154 153 166 165 157 158 159 137 130 127 135 139
307 308 301 299 298 296 292 298 296 283 294 283 275 279 278 264 243 253 257 262 271 265 254 237 230 214 188 180 177 187 188 176 160 146 145 138 131 116 123 139 136 121 108
305 293 299 297 298 295 295 293 279 274 285 274 272 277 265 253 243 252 249 256 253 261 230 222 205 181 177 193 213 201 181 160 144 137 134 120 120 119 139 131 120 111 93
298 300 299 299 294 288 284 284 283 277 272 268 273 267 252 240 231 258 240 239 249 237 204 187 171 175 176 184 202 192 165 150 139 128 118 121 126 134 138 120 120 109 94
306 306 304 295 291 293 291 280 277 267 263 266 257 256 226 229 227 223 223 226 221 176 161 157 150 155 163 172 186 171 162 147 135 121 119 126 137 129 113 114 107 101 97
316 312 308 304 299 295 287 280 266 263 260 249 237 223 200 211 219 202 203 195 181 167 152 149 142 143 150 167 167 163 139 137 123 118 128 131 126 119 115 110 106 108 100
320 322 320 315 309 300 285 273 259 245 227 223 209 179 179 185 192 192 175 162 168 159 148 147 140 131 127 120 127 121 113 114 113 115 126 125 123 119 114 115 110 104 102
327 329 327 324 316 308 290 250 219 201 186 153 162 176 169 167 165 164 166 166 161 156 154 149 139 127 124 126 124 120 121 118 113 115 117 118 114 112 109 100 97 101 107
337 342 342 331 331 288 236 197 172 157 153 151 159 158 161 160 154 152 153 156 154 161 157 144 136 130 129 126 123 123 120 117 117 115 112 114 110 105 100 96 96 99 101
354 356 358 23 50 101 117 128 141 150 150 145 136 142 149 150 153 152 141 140 151 154 144 137 134 128 124 125 123 117 113 112 122 120 115 107 100 98 98 94 89 82 87
Wind_Speed_850mb
20 17 17 15 33 31 29 25 21 23 30 40 46 57 66 67 67 68 72 72 69 92 92 72 75 74 73 74 76 70 73 68 63 51 50 43 50 47 48 47 37 48 39
20 15 19 20 20 12 8 3 4 11 18 26 36 44 51 69 77 72 69 81 79 77 84 82 78 74 79 75 81 72 76 78 72 64 55 41 37 47 46 45 38 40 39
18 13 18 18 8 8 10 12 16 15 9 16 26 36 47 55 63 71 81 68 87 89 86 82 74 77 85 65 77 76 81 82 74 70 47 34 30 47 41 40 39 42 41
46 43 39 28 17 12 18 26 29 33 36 29 30 29 39 53 62 63 69 65 83 77 69 53 73 70 70 90 84 87 78 84 81 69 78 45 30 31 25 39 44 43 42
30 30 27 27 25 18 15 9 10 14 22 31 35 37 40 47 60 68 64 67 70 53 57 71 61 77 77 79 83 82 89 84 82 74 81 83 38 41 37 36 50 47 36
27 24 18 14 20 15 15 17 22 21 21 27 39 45 41 46 51 59 72 67 56 56 63 57 65 73 89 88 77 85 72 93 81 74 76 77 77 53 48 40 49 48 42
40 33 31 30 29 24 22 21 31 34 37 44 45 47 58 56 57 56 61 65 60 55 67 60 57 61 72 88 82 65 64 74 80 78 66 57 71 82 72 54 52 54 42
35 34 35 37 38 36 35 38 39 42 44 37 39 42 50 57 62 59 57 55 54 56 54 52 51 49 68 76 76 80 70 78 85 75 94 81 65 83 86 74 68 47 43
33 25 28 31 41 48 52 54 51 47 40 39 43 51 53 58 63 63 54 51 50 44 48 46 46 57 71 71 74 76 75 70 77 62 68 68 70 65 67 62 59 57 46
22 25 35 41 46 54 51 53 56 55 49 42 34 37 49 57 60 56 60 51 47 48 49 51 58 57 56 57 66 62 64 66 75 68 76 70 63 63 70 59 52 55 40
21 32 43 49 55 59 57 59 60 59 61 59 54 45 44 46 54 51 61 60 45 43 51 48 45 55 51 47 51 56 60 56 63 71 75 70 68 73 74 61 54 45 39
30 28 37 47 45 48 48 58 68 74 70 68 74 66 58 44 50 63 57 63 58 43 41 51 48 44 44 46 43 47 46 49 55 59 68 74 77 79 66 55 43 39 38
40 54 63 53 48 45 47 53 63 77 74 61 61 65 67 50 43 49 55 63 61 46 40 39 43 41 43 42 37 39 39 50 45 50 37 57 65 66 62 52 49 43 34
61 67 56 53 56 52 53 53 76 68 61 59 56 58 59 53 43 48 47 61 55 46 35 33 37 47 41 36 37 32 29 24 21 14 25 32 30 61 49 49 49 44 41
66 56 60 59 51 59 70 78 90 79 61 55 53 54 55 52 39 38 42 52 54 44 33 39 35 33 33 32 17 14 5 22 15 16 18 17 33 24 46 45 42 37 48
59 51 53 64 66 68 71 84 74 66 56 56 55 49 51 47 37 32 45 56 56 46 41 33 31 32 26 20 17 18 25 10 17 29 25 36 36 42 31 36 30 24 28
51 62 63 65 68 79 81 73 65 60 54 53 56 50 47 43 40 33 44 50 52 43 34 33 31 26 19 27 33 32 25 19 17 18 20 40 35 38 50 49 36 28 23
73 86 70 69 83 76 68 70 62 60 63 56 56 64 48 42 44 30 34 45 43 41 40 36 31 22 24 34 46 28 27 26 26 23 35 34 39 48 48 45 46 42 38
85 66 82 78 82 76 73 68 59 67 72 62 60 56 36 35 41 24 32 30 41 41 43 37 28 31 37 38 30 27 37 42 43 43 40 53 51 48 45 47 47 46 45
62 75 82 88 76 65 67 76 66 55 61 60 55 41 37 30 37 23 27 37 40 42 41 35 32 32 32 27 26 29 49 55 54 55 58 47 45 42 33 37 42 47 46
80 84 76 68 76 71 65 59 56 56 55 55 41 30 24 21 28 24 37 34 37 39 42 43 44 41 37 39 35 43 56 63 64 68 50 40 38 46 46 42 42 45 41
83 74 74 68 61 56 51 52 50 49 41 32 34 18 22 21 24 35 34 38 43 46 51 58 56 47 43 36 37 51 58 67 79 69 50 38 42 48 47 44 42 39 35
81 70 68 67 58 48 40 40 36 26 26 29 19 25 24 22 28 35 45 55 52 54 65 65 66 61 52 50 51 71 83 71 72 66 57 52 46 45 42 36 33 32 36
68 67 62 63 65 52 32 23 23 22 24 17 23 30 37 44 48 49 53 57 62 69 75 72 69 69 70 78 85 88 77 70 71 66 57 49 50 49 44 41 37 34 33
62 57 60 56 51 31 22 17 26 33 24 58 57 57 55 59 60 60 62 66 66 66 72 72 71 86 96 90 86 84 82 76 66 58 49 47 45 43 40 36 33 34 34
51 53 44 42 55 49 47 43 38 54 72 70 63 62 64 61 62 65 66 60 65 69 75 80 90 102 101 93 90 88 78 66 57 53 51 49 48 47 43 37 35 37 36
Wind_Direction_850mb
285 74 44 295 242 233 237 243 242 232 240 249 257 256 265 276 270 266 272 274 257 246 235 228 230 224 220 218 222 224 228 225 228 226 220 233 236 229 228 232 238 235 238
35 16 36 84 97 96 95 80 275 286 301 295 290 288 282 278 276 266 265 267 269 256 243 238 229 231 222 226 223 226 227 230 227 220 217 214 205 210 220 235 234 225 226
52 53 73 73 86 72 22 355 339 329 320 293 295 293 292 288 282 265 262 272 262 262 256 252 242 235 221 227 227 224 228 227 224 219 210 207 215 215 222 224 219 219 225
78 71 62 58 55 43 2 340 323 308 297 294 291 298 294 290 280 282 270 274 280 260 257 253 255 257 249 241 229 227 229 231 228 219 213 217 216 191 190 211 215 216 226
60 51 38 43 58 36 12 9 322 295 289 295 302 297 298 299 287 277 275 276 287 283 258 266 261 258 252 232 226 226 223 230 233 232 221 222 215 210 204 196 198 211 218
49 47 9 342 353 9 344 327 320 307 290 289 290 296 297 301 305 281 274 272 286 266 262 266 264 257 258 256 249 237 236 226 232 234 233 232 228 218 215 210 203 205 204
22 21 11 6 14 6 356 340 334 329 324 307 298 294 296 295 293 294 289 284 284 278 270 268 262 261 257 260 256 251 254 241 226 222 224 233 240 234 228 211 198 193 194
3 351 348 341 339 329 323 314 311 314 311 315 302 293 292 296 299 300 298 291 278 279 276 273 267 268 265 260 259 250 250 248 249 245 235 219 229 238 230 223 217 190 183
333 341 332 339 336 327 316 311 308 306 308 317 302 296 291 289 294 295 305 297 281 271 269 268 259 260 266 266 263 252 251 247 249 249 243 220 233 241 240 226 226 216 190
308 316 318 317 310 306 311 307 297 297 296 293 298 292 295 283 283 287 291 292 290 276 257 254 256 259 263 267 267 261 259 255 245 240 242 242 228 241 246 229 215 203 222
313 309 307 302 301 297 303 295 291 295 296 294 288 280 276 282 276 277 278 282 287 282 262 256 258 257 260 271 277 272 265 262 259 245 247 240 230 223 219 208 208 205 211
332 331 323 316 302 311 298 292 292 295 298 299 289 282 274 283 277 273 276 275 274 275 278 257 255 265 266 262 269 271 272 265 262 254 240 237 227 208 215 205 203 195 195
336 327 321 311 308 303 294 300 304 301 300 301 301 291 272 272 276 275 270 278 276 270 270 270 250 254 257 260 266 269 263 254 238 222 204 204 204 204 203 198 191 179 174
330 322 312 313 312 287 286 290 313 310 303 302 300 296 283 265 274 276 264 266 270 268 281 271 250 242 251 258 263 271 276 272 224 273 229 224 207 186 165 174 170 161 160
317 311 309 308 296 302 301 295 308 309 305 301 298 292 299 261 271 264 269 261 266 265 293 271 253 245 247 253 262 260 257 168 210 214 124 22 239 170 158 147 127 138 134
311 311 310 310 306 297 295 297 300 299 298 294 295 294 298 268 257 254 257 261 266 268 304 271 250 242 249 219 198 193 168 196 172 166 170 185 194 169 153 111 125 141 142
306 310 308 305 295 299 299 298 296 294 296 289 292 287 291 270 249 243 261 262 266 273 280 255 248 243 219 194 175 174 170 154 153 166 165 157 158 159 137 130 127 135 139
307 308 301 299 298 296 292 298 296 283 294 283 275 279 278 264 243 253 257 262 271 265 254 237 230 214 188 180 177 187 188 176 160 146 145 138 131 116 123 139 136 121 108
305 293 299 297 298 295 295 293 279 274 285 274 272 277 265 253 243 252 249 256 253 261 230 222 205 181 177 193 213 201 181 160 144 137 134 120 120 119 139 131 120 111 93
298 300 299 299 294 288 284 284 283 277 272 268 273 267 252 240 231 258 240 239 249 237 204 187 171 175 176 184 202 192 165 150 139 128 118 121 126 134 138 120 120 109 94
306 306 304 295 291 293 291 280 277 267 263 266 257 256 226 229 227 223 223 226 221 176 161 157 150 155 163 172 186 171 162 147 135 121 119 126 137 129 113 114 107 101 97
316 312 308 304 299 295 287 280 266 263 260 249 237 223 200 211 219 202 203 195 181 167 152 149 142 143 150 167 167 163 139 137 123 118 128 131 126 119 115 110 106 108 100
320 322 320 315 309 300 285 273 259 245 227 223 209 179 179 185 192 192 175 162 168 159 148 147 140 131 127 120 127 121 113 114 113 115 126 125 123 119 114 115 110 104 102
327 329 327 324 316 308 290 250 219 201 186 153 162 176 169 167 165 164 166 166 161 156 154 149 139 127 124 126 124 120 121 118 113 115 117 118 114 112 109 100 97 101 107
337 342 342 331 331 288 236 197 172 157 153 151 159 158 161 160 154 152 153 156 154 161 157 144 136 130 129 126 123 123 120 117 117 115 112 114 110 105 100 96 96 99 101
354 356 358 23 50 101 117 128 141 150 150 145 136 142 149 150 153 152 141 140 151 154 144 137 134 128 124 125 123 117 113 112 122 120 115 107 100 98 98 94 89 82 87